Flag for Switzerland Weather past 2 weeks in Altdorf, Uri, Switzerland

Now
65 °F

Mild.


Feels Like: 65 °F
Forecast: 60 / 66 °F
Wind: 5 mph from North

Location: Altdorf

Current Time: Sep 1, 2015 at 7:01:52 PM

Latest Report: Sep 1, 2015 at 6:00 PM


Visibility: N/A

Pressure: 29.96 "Hg

Humidity: 88%

Dew point: 62 °F

Location of AltdorfLocation

Historic Weather in Altdorf — Graph

°F

Altdorf temperature yesterday

Maximum temperature yesterday: 85 °F (at 4:00 PM)
Minimum temperature yesterday: 61 °F (at 7:00 AM)
Average temperature yesterday: 75 °F

Past Weeks' High & Low Weather Summary

 TemperatureHumidityPressure
High86 °F (Aug 30, 5:00 PM)99% (Aug 19, 2:00 AM)30.28 "Hg (Aug 19, 2:00 AM)
Low50 °F (Aug 26, 7:00 AM)22% (Aug 31, 4:00 AM)29.67 "Hg (Aug 24, 8:00 AM)
Average66 °F71%30.01 "Hg
* Reported Aug 17 5:00 PM — Sep 1 5:00 PM, Altdorf, Weather by CustomWeather, © 2015

Note: Actual official high and low records may vary slightly from our data, if they occured in-between our weather recording intervals... More about our weather records

Advertising

Altdorf weather history for previous 24 hours

 ConditionsComfort  
Time TempWeatherWind HumidityBarometerVisibility
5:00 PM
Tue, Sep 1
65 °FMild.2 mph91%29.96 "HgN/A
4:00 PM65 °FMild.8 mph88%29.94 "HgN/A
3:00 PM71 °FMild.12 mph63%29.90 "HgN/A
2:00 PM73 °FOvercast.14 mph61%29.87 "Hg11 mi
1:00 PM74 °FMild.12 mph63%29.85 "HgN/A
12:00 PM75 °FMild.18 mph59%29.84 "HgN/A
11:00 AM78 °FOvercast.16 mph49%29.81 "Hg16 mi
10:00 AM73 °FMild.9 mph58%29.79 "HgN/A
9:00 AM72 °FMild.2 mph63%29.80 "HgN/A
8:00 AM66 °FPartly sunny.3 mph71%29.84 "Hg16 mi
7:00 AM70 °FMild.5 mph67%29.84 "HgN/A
6:00 AM69 °FMild.10 mph70%29.84 "HgN/A
4:00 AM64 °FMild.1 mph73%29.89 "HgN/A
3:00 AM65 °FMild.1 mph73%29.91 "HgN/A
2:00 AM67 °FPassing clouds.2 mph67%29.92 "Hg16 mi
1:00 AM64 °FMild.2 mph80%29.93 "HgN/A
12:00 AM66 °FMild.1 mph74%29.93 "HgN/A
10:00 PM
Mon, Aug 31
73 °FMild.5 mph57%29.92 "HgN/A
9:00 PM74 °FMild.5 mph55%29.91 "HgN/A
8:00 PM76 °FPassing clouds.3 mph50%29.90 "Hg16 mi
7:00 PM81 °FWarm.3 mph40%29.88 "HgN/A
Weather by CustomWeather, © 2015

See weather overviewHow to use our weather pages